EW6271 Weather Reports


Display with metric or nautical units.
time (UTC)temp
F
wind
direction
speed
MPH
gust
MPH
rain 1hr
in
rain 24hr
in
rain mn
in
humidity
%
barometer
mb
20181211023037 32 168 0.0 0.0 0.00 0.00 0.00 97 1027.0
20181211021514 32 168 0.0 0.0 0.00 0.00 0.00 97 1027.0
20181211020013 32 168 0.0 0.0 0.00 0.00 0.00 97 1027.0
20181211014531 32 168 0.0 0.0 0.00 0.00 0.00 96 1027.0
20181211013013 32 169 0.0 0.0 0.00 0.00 0.00 96 1027.1
20181211011507 32 168 0.0 0.0 0.00 0.00 0.00 96 1027.1
20181211010012 32 168 0.0 0.0 0.00 0.00 0.00 96 1027.0
20181211004511 32 168 0.0 0.0 0.00 0.00 0.00 96 1026.8
20181211003004 32 168 0.0 0.0 0.00 0.00 0.00 96 1026.9
20181211001503 32 168 0.0 0.0 0.00 0.00 0.00 96 1026.7
20181211000002 33 168 0.0 0.0 0.00 0.00 0.00 95 1026.5
20181210234641 33 168 0.0 0.0 0.00 0.00 0.00 95 1026.5
20181210233133 33 168 0.0 0.0 0.00 0.00 0.00 95 1026.4
20181210231656 33 168 0.0 0.0 0.00 0.00 0.00 95 1026.2
20181210230317 33 179 0.0 0.0 0.00 0.00 0.00 95 1026.1
20181210224815 33 100 0.0 0.0 0.00 0.00 0.00 95 1026.0
20181210223151 33 100 0.0 0.0 0.00 0.00 0.00 95 1026.1
20181210221735 33 100 0.0 1.0 0.00 0.00 0.00 94 1026.1
20181210220143 34 101 0.0 1.0 0.00 0.00 0.00 94 1026.0
20181210214613 34 101 0.0 0.0 0.00 0.00 0.00 95 1025.9
20181210213206 33 101 0.0 1.0 0.00 0.00 0.00 94 1025.8
20181210211718 33 101 0.0 1.0 0.00 0.00 0.00 94 1025.9
20181210210239 33 101 0.0 1.0 0.00 0.00 0.00 94 1026.0
20181210204737 33 101 0.0 1.0 0.00 0.00 0.00 94 1026.0
20181210203200 33 136 0.0 0.0 0.00 0.00 0.00 94 1026.1
20181210201659 34 94 0.0 0.0 0.00 0.00 0.00 94 1026.1
20181210200135 33 94 0.0 1.0 0.00 0.00 0.00 95 1026.1
20181210194704 33 94 0.0 0.0 0.00 0.00 0.00 95 1026.2
20181210193218 33 91 0.0 0.0 0.00 0.00 0.00 95 1026.4
20181210191639 33 91 0.0 0.0 0.00 0.00 0.00 95 1026.6
20181210190145 33 91 0.0 0.0 0.00 0.00 0.00 95 1026.7
20181210184647 33 91 0.0 0.0 0.00 0.00 0.00 96 1026.8
20181210183130 33 91 0.0 0.0 0.00 0.00 0.00 96 1026.9
20181210181618 33 91 0.0 0.0 0.00 0.00 0.00 96 1027.0
20181210180101 33 91 0.0 0.0 0.00 0.00 0.00 97 1027.0
20181210174738 32 91 0.0 1.0 0.00 0.00 0.00 96 1026.9
20181210173133 32 91 0.0 1.0 0.00 0.00 0.00 96 1027.0
20181210171633 32 93 0.0 1.0 0.00 0.00 0.00 96 1027.0
20181210170058 32 122 0.0 0.0 0.00 0.00 0.00 97 1026.8
20181210164623 31 122 0.0 1.0 0.00 0.00 0.00 97 1026.7
20181210163048 31 122 0.0 0.0 0.00 0.00 0.00 97 1026.5
20181210161605 31 122 0.0 0.0 0.00 0.00 0.00 97 1026.5
20181210160124 31 122 0.0 0.0 0.00 0.00 0.00 97 1026.4
20181210154548 31 122 0.0 0.0 0.00 0.00 0.00 97 1026.2
20181210153054 31 122 0.0 0.0 0.00 0.00 0.00 97 1026.1
20181210151536 30 122 0.0 0.0 0.00 0.00 0.00 97 1026.1
20181210150101 30 122 0.0 0.0 0.00 0.00 0.00 97 1026.2
20181210144617 30 122 0.0 0.0 0.00 0.00 0.00 96 1026.1
20181210143034 30 122 0.0 0.0 0.00 0.00 0.00 96 1026.0
20181210141616 30 122 0.0 0.0 0.00 0.00 0.00 96 1026.0
20181210140049 30 122 0.0 0.0 0.00 0.00 0.00 96 1026.0
20181210134532 30 122 0.0 0.0 0.00 0.00 0.00 96 1026.0
20181210133032 30 122 0.0 1.0 0.00 0.00 0.00 96 1026.0
20181210131610 30 148 0.0 0.0 0.00 0.00 0.00 96 1025.9
20181210130056 30 96 0.0 1.0 0.00 0.00 0.00 96 1026.0
20181210124532 31 147 0.0 0.0 0.00 0.00 0.00 96 1026.3
20181210123041 31 104 0.0 0.0 0.00 0.00 0.00 96 1026.1
20181210121523 31 104 0.0 1.0 0.00 0.00 0.00 96 1026.2
20181210120021 31 100 0.0 1.0 0.00 0.00 0.00 96 1026.2
20181210114535 31 89 0.0 2.0 0.00 0.00 0.00 96 1026.2
20181210113020 31 75 0.0 1.0 0.00 0.00 0.00 96 1026.2
20181210111516 30 79 0.0 1.0 0.00 0.00 0.00 96 1026.4
20181210110015 30 88 0.0 2.0 0.00 0.00 0.00 96 1026.6
20181210104555 30 90 0.0 2.0 0.00 0.00 0.00 96 1026.6
20181210103019 30 89 0.0 1.0 0.00 0.00 0.00 95 1026.8
20181210101515 30 89 0.0 1.0 0.00 0.00 0.00 95 1026.9
20181210100040 29 347 0.0 0.0 0.00 0.00 0.00 94 1026.9
20181210094512 29 347 0.0 0.0 0.00 0.00 0.00 93 1026.9
20181210093008 29 347 0.0 0.0 0.00 0.00 0.00 92 1026.8
20181210091505 29 347 0.0 1.0 0.00 0.00 0.00 91 1026.8
20181210090004 29 347 0.0 1.0 0.00 0.00 0.00 91 1026.7
20181210084701 29 347 0.0 1.0 0.00 0.00 0.00 91 1026.5
20181210083209 29 347 0.0 1.0 0.00 0.00 0.00 91 1026.4
20181210081743 28 308 0.0 0.0 0.00 0.00 0.00 91 1026.4
20181210080204 28 308 0.0 0.0 0.00 0.00 0.00 91 1026.4
20181210074715 27 308 0.0 1.0 0.00 0.00 0.00 92 1026.5
20181210073142 27 309 0.0 0.0 0.00 0.00 0.00 91 1026.5
20181210071643 27 309 0.0 0.0 0.00 0.00 0.00 91 1026.7
20181210070157 27 309 0.0 0.0 0.00 0.00 0.00 90 1026.8
20181210064725 27 309 0.0 0.0 0.00 0.00 0.00 89 1026.8
20181210063123 27 309 0.0 1.0 0.00 0.00 0.00 90 1026.7
20181210061622 27 314 0.0 1.0 0.00 0.00 0.00 89 1026.6
20181210060126 27 315 0.0 1.0 0.00 0.00 0.00 90 1026.8
20181210054654 28 17 0.0 2.0 0.00 0.00 0.00 89 1026.8
20181210053226 28 309 0.0 2.0 0.00 0.00 0.00 89 1026.7
20181210051619 27 223 0.0 0.0 0.00 0.00 0.00 90 1026.7
20181210050121 28 297 0.0 0.0 0.00 0.00 0.00 88 1027.0
20181210044610 28 302 0.0 2.0 0.00 0.00 0.00 89 1026.9
20181210043126 28 312 1.0 2.0 0.00 0.00 0.00 90 1027.0
20181210041558 27 312 0.0 1.0 0.00 0.00 0.00 92 1027.2
20181210040155 26 312 0.0 1.0 0.00 0.00 0.00 91 1027.0
20181210034632 27 312 0.0 0.0 0.00 0.00 0.00 90 1027.3
20181210033102 28 312 0.0 0.0 0.00 0.00 0.00 89 1027.4
20181210031617 28 312 0.0 1.0 0.00 0.00 0.00 88 1027.3
20181210030112 29 63 0.0 1.0 0.00 0.00 0.00 88 1027.3
20181210024630 29 19 0.0 0.0 0.00 0.00 0.00 88 1027.5